sim
Sign-in with your pilot id or email,
or register
Callsign
Passwort

Schedule Details

Flight Number: RYR5142 (1)
Departure: Karlsruhe/Baden-Baden Airport (EDSB) at 08:35
Arrival: Thessaloniki International Airport (LGTS) at 11:10
Route: Ryanair Passenger Schedule. Enter filed route here before submitting Pirep.

Weather Information
Getting current METAR information for EDSB 172250Z AUTO VRB01KT 8000 // FEW095/// BKN170/// 17/17 Q1011
Getting current METAR information for LGTS 172250Z 11004KT 9999 FEW025 21/16 Q1015 NOSIG

Schedule Frequency

Route Map